Location: Hains Lake
(37.8540°N, 99.8578°W)
Time: 03:39:50
(UTC+00:00)

Tiros 1 despin weight - Pass Details

Date: 23 April 2021
Orbit: 593 x 642 km, 48.2° (Epoch: 07 May)

Event Time Altitude Azimuth Distance (km) Brightness Sun altitude
Rises 16:04:39 0° 304° (NW) 2,876 ? 47.7°
Reaches altitude 10° 16:06:59 10° 306° (NW) 1,961 ? 48.2°
Maximum altitude 16:11:29 73° 32° (NNE) 631 ? 49.0°
Drops below altitude 10° 16:15:54 10° 117° (ESE) 1,927 ? 49.7°
Sets 16:18:10 0° 119° (ESE) 2,821 ? 50.1°
